Weather History for Ottumwa, IA

Change the Weather History Date:

Friday, November 15, 2013

  Actual Average Record
Temperature  
Mean Temperature 46 °F 40 °F  
Max Temperature 57 °F 49 °F 76 °F (1950)
Min Temperature 34 °F 30 °F 4 °F (1959)
Degree Days  
Heating Degree Days 19 25  
Month to date heating degree days 349 327  
Since 1 July heating degree days 837 851  
Cooling Degree Days 0 0  
Month to date cooling degree days 0 0  
Year to date cooling degree days 1014 938  
Moisture  
Dew Point 32 °F    
Average Humidity 58    
Maximum Humidity 76    
Minimum Humidity 39    
Precipitation  
Precipitation 0.00 in 0.08 in 1.91 in (1961)
Month to date precipitation 0.78 1.30  
Year to date precipitation 34.90 34.62  
Sea Level Pressure  
Sea Level Pressure 29.88 in    
Wind  
Wind Speed 10 mph (SSW)    
Max Wind Speed 18 mph    
Max Gust Speed 22 mph    
Visibility 10 miles    
Events      
T = Trace of Precipitation, MM = Missing Value Source: NWS Daily Summary

Daily Weather History Graph

Daily Weather History Graph

Search for Another Location

Airport:

Trip Planner

Search our weather history database for the weather conditions in past years. The results will help you decide how hot, cold, wet, or windy it might be!

Date:

Astronomy

Nov. 15, 2013 Rise Set
Actual Time 6:57 AM CST 4:50 PM CST
Civil Twilight 6:28 AM CST 5:20 PM CST
Nautical Twilight 5:54 AM CST 5:53 PM CST
Astronomical Twilight 5:22 AM CST 6:26 PM CST
Moon 3:48 PM CST (11/15) 4:53 AM CST (11/15)
Length of Visible Light 10h 51m
Length of Day
9h 52m
Waxing Gibbous, 96% of the Moon is Illuminated
Nov 15
Waxing Gibbous
Nov 17
Full
Nov 25
Last Quarter
Dec 2
New
Dec 9
First Quarter

Hourly Weather History & Observations

Time (CST) Temp. Windchill Dew Point Humidity Pressure Visibility Wind Dir Wind Speed Gust Speed Precip Events Conditions
12:53 AM 45.0 °F 39.3 °F 28.0 °F 52% 29.93 in 10.0 mi SW 11.5 mph - N/A   Overcast
1:53 AM 42.1 °F 36.6 °F 28.0 °F 58% 29.92 in 10.0 mi WSW 9.2 mph - N/A   Mostly Cloudy
2:53 AM 39.0 °F 33.4 °F 28.0 °F 65% 29.93 in 10.0 mi WSW 8.1 mph - N/A   Clear
3:53 AM 37.0 °F 31.6 °F 28.0 °F 70% 29.92 in 10.0 mi WSW 6.9 mph - N/A   Clear
4:53 AM 36.0 °F 31.1 °F 28.0 °F 73% 29.93 in 10.0 mi SSW 5.8 mph - N/A   Clear
5:53 AM 37.0 °F 31.0 °F 28.0 °F 70% 29.93 in 10.0 mi SSW 8.1 mph - N/A   Clear
6:53 AM 35.1 °F 29.3 °F 27.0 °F 72% 29.95 in 10.0 mi SSW 6.9 mph - N/A   Clear
7:53 AM 37.0 °F 31.6 °F 28.9 °F 73% 29.96 in 10.0 mi South 6.9 mph - N/A   Clear
8:53 AM 42.1 °F 37.1 °F 30.0 °F 62% 29.95 in 10.0 mi SSW 8.1 mph - N/A   Clear
9:53 AM 48.0 °F - 30.0 °F 50% 29.95 in 10.0 mi SW 11.5 mph - N/A   Clear
10:53 AM 52.0 °F - 30.9 °F 45% 29.95 in 10.0 mi WSW 10.4 mph - N/A   Clear
11:53 AM 54.0 °F - 32.0 °F 43% 29.90 in 10.0 mi South 8.1 mph - N/A   Clear
12:53 PM 55.9 °F - 33.1 °F 42% 29.87 in 10.0 mi South 11.5 mph - N/A   Clear
1:53 PM 57.0 °F - 32.0 °F 39% 29.86 in 10.0 mi South 12.7 mph - N/A   Clear
2:53 PM 55.9 °F - 33.1 °F 42% 29.86 in 10.0 mi South 11.5 mph - N/A   Clear
3:53 PM 55.0 °F - 33.1 °F 43% 29.85 in 10.0 mi South 15.0 mph - N/A   Partly Cloudy
4:53 PM 52.0 °F - 33.1 °F 49% 29.85 in 10.0 mi SSE 11.5 mph - N/A   Overcast
5:53 PM 46.9 °F - 33.1 °F 59% 29.84 in 10.0 mi SSE 6.9 mph - N/A   Partly Cloudy
6:53 PM 41.0 °F 35.8 °F 32.0 °F 70% 29.84 in 10.0 mi SE 8.1 mph - N/A   Clear
7:53 PM 45.0 °F 39.7 °F 35.1 °F 68% 29.83 in 10.0 mi SE 10.4 mph - N/A   Clear
8:53 PM 45.0 °F 39.3 °F 36.0 °F 71% 29.81 in 10.0 mi SSE 11.5 mph - N/A   Clear
9:53 PM 45.0 °F 38.9 °F 36.0 °F 71% 29.80 in 10.0 mi SSE 12.7 mph - N/A   Clear
10:53 PM 45.0 °F 38.2 °F 37.0 °F 74% 29.79 in 10.0 mi South 15.0 mph - N/A   Clear
11:53 PM 45.0 °F 38.9 °F 37.9 °F 76% 29.78 in 10.0 mi South 12.7 mph - N/A   Clear